This demonstration page uses our WeatherBlox Daily Observations layout. Learn more.

Left ArrowRight Arrow

Hourly Observations for May 21, 2015

Temp ( °F °C ) Dew Point ( °F °C ) Humidity (%) Winds ( mph kmh ) Pressure ( in mb ) Visibility ( mi km ) Precip ( " mm )
12:58 am 00:58 Clear 41 4.9 39 4 94 94 WNW 8 13 30.29 1026 10 16 0.00 0.00
2:58 am 02:58 Clear 38 3.6 37 3 96 96 NW 6 9 30.28 1025 10 16 0.00 0.00
3:58 am 03:58 Clear 38 3.6 37 3 96 96 NW 3 6 30.28 1025 10 16 0.00 0.00
4:58 am 04:58 Clear with Mist and Fog 36 2.4 35 1.8 96 96 S 1 2 30.27 1025 4 6 0.00 0.00
5:58 am 05:58 Clear 35 1.6 34 1.2 97 97 WNW 2 4 30.28 1025 10 16 0.00 0.00
6:58 am 06:58 Sunny 38 3.1 37 2.8 98 98 W 3 6 30.29 1026 10 16 0.00 0.00
7:58 am 07:58 Sunny 45 7.3 41 5.2 87 87 NW 3 6 30.29 1026 10 16 0.00 0.00
8:58 am 08:58 Sunny 50 10 42 5.7 75 75 WNW 6 9 30.28 1025 10 16 0.00 0.00
9:58 am 09:58 Sunny 56 13.4 43 5.9 61 61 WNW 8 13 30.27 1025 10 16 0.00 0.00
10:58 am 10:58 Sunny 60 15.7 45 7 56 56 W 7 11 30.26 1025 10 16 0.00 0.00
11:58 am 11:58 Sunny 65 18.2 42 5.6 44 44 W 9 15 30.25 1024 10 16 0.00 0.00
12:58 pm 12:58 Sunny 67 19.4 42 5.5 40 40 NW 10 17 30.24 1024 10 16 0.00 0.00
1:58 pm 13:58 Sunny 69 20.4 43 6 39 39 VRB 6 9 30.23 1024 10 16 0.00 0.00
2:20 pm 14:20 Mostly Sunny 70 21 43 6 38 38 W 6 9 30.18 1022 10 16 0.00 0.00
2:58 pm 14:58 Sunny 70 21.2 42 5.4 36 36 WNW 14 22 30.21 1023 10 16 0.00 0.00
3:58 pm 15:58 Sunny 71 21.7 42 5.7 35 35 WSW 7 11 30.19 1023 10 16 0.00 0.00
4:58 pm 16:58 Sunny 71 21.8 39 4 31 31 WNW 6 9 30.19 1022 10 16 0.00 0.00
5:58 pm 17:58 Sunny 71 21.9 41 5 33 33 WSW 7 11 30.16 1022 10 16 0.00 0.00
6:58 pm 18:58 Sunny 70 21.2 39 4 32 32 W 6 9 30.15 1021 10 16 0.00 0.00
7:58 pm 19:58 Sunny 68 20.1 38 3.2 33 33 WSW 7 11 30.15 1021 10 16 0.00 0.00
8:58 pm 20:58 Clear 64 17.9 41 5.2 43 43 SW 7 11 30.15 1021 10 16 0.00 0.00
9:58 pm 21:58 Clear 60 15.8 42 5.3 50 50 WSW 6 9 30.17 1022 10 16 0.00 0.00
10:58 pm 22:58 Clear 59 15 42 5.3 53 53 W 5 7 30.18 1022 10 16 0.00 0.00
11:58 pm 23:58 Clear 58 14.2 42 5.5 56 56 W 5 7 30.19 1022 10 16 0.00 0.00

Powered by AerisWeather